Location: Unspecified
(43.4354°N, 0.0000°E)
Time: 07:13:26
(UTC+00:00)

Courier 1B - Pass Details

Date: 21 June 2019
Orbit: 963 x 1209 km, 28.3° (Epoch: 19 July)

Event Time Altitude Azimuth Distance (km) Brightness Sun altitude
Rises 17:29:05 0° 206° (SSW) 3,812 10.8 21.6°
Reaches altitude 10° 17:33:45 10° 178° (S) 2,923 9.9 20.8°
Maximum altitude 17:36:27 12° 156° (SSE) 2,785 9.6 20.3°
Drops below altitude 10° 17:39:12 10° 133° (SE) 2,997 9.6 19.8°
Sets 17:44:07 0° 106° (ESE) 4,017 10.1 19.0°
